Flag for Brazil Weather past 2 weeks in Belém, Para, Brazil

Now
79 °F

Clear.


Feels Like: 82 °F
Forecast: 76 / 92 °F
Wind: 6 mph from Northeast

Location: Belem Aeroporto

Current Time: Jul 29, 2014 at 11:58:25 PM

Latest Report: Jul 29, 2014 at 11:00 PM


Visibility: 10 mi

Pressure: 29.98 "Hg

Humidity: 79%

Dew point: 72 °F

Location of BelémLocation

Historic Weather in Belém — Graph

°F

Belém temperature yesterday

Maximum temperature yesterday: 88 °F (at 12:00 PM)
Minimum temperature yesterday: 73 °F (at 4:00 AM)
Average temperature yesterday: 80 °F

Past Weeks' High & Low Weather Summary

 TemperatureHumidityPressure
High90 °F (Jul 15, 3:00 PM)100% (Jul 15, 4:00 AM)30.04 "Hg (Jul 15, 4:00 AM)
Low73 °F (Jul 15, 7:00 PM)49% (Jul 23, 4:00 PM)29.83 "Hg (Jul 24, 3:00 PM)
Average80 °F80%29.95 "Hg
* Reported Jul 14 10:00 PM — Jul 29 10:00 PM, Belém, Weather by CustomWeather, © 2014

Note: Actual official high and low records may vary slightly from our data, if they occured in-between our weather recording intervals... More about our weather records

Advertising

Belém weather history for previous 24 hours

 ConditionsComfort  
Time TempWeatherWind HumidityBarometerVisibility
10:00 PM
Jul 29
79 °FPassing clouds.6 mph79%29.98 "HgN/A
9:00 PM81 °FClear.7 mph79%29.95 "Hg10 mi
8:00 PM81 °FClear.5 mph79%29.92 "Hg10 mi
7:00 PM82 °FClear.7 mph74%29.89 "Hg10 mi
6:00 PM86 °FPassing clouds.3 mph55%29.89 "HgN/A
5:00 PM88 °FPassing clouds.6 mph52%29.89 "HgN/A
3:00 PM88 °FScattered clouds.8 mph52%29.92 "HgN/A
2:00 PM90 °FScattered clouds.7 mph52%29.95 "HgN/A
1:00 PM86 °FPartly sunny.6 mph62%29.98 "HgN/A
12:00 PM84 °FPartly sunny.6 mph70%30.01 "HgN/A
11:00 AM86 °FPartly sunny.8 mph66%29.98 "HgN/A
10:00 AM82 °FPassing clouds.7 mph70%30.01 "HgN/A
9:00 AM81 °FSunny.7 mph79%30.01 "Hg10 mi
8:00 AM77 °FSunny.5 mph89%30.01 "Hg10 mi
7:00 AM75 °FSunny.3 mph89%29.98 "Hg10 mi
6:00 AM73 °FClear.2 mph94%29.98 "Hg10 mi
5:00 AM75 °FClear.3 mph89%29.98 "Hg10 mi
4:00 AM75 °FClear.3 mph89%29.98 "Hg10 mi
3:00 AM75 °FClear.5 mph89%29.98 "Hg10 mi
2:00 AM75 °FClear.6 mph89%29.98 "Hg10 mi
1:00 AM77 °FClear.7 mph83%30.01 "Hg10 mi
12:00 AM77 °FClear.7 mph83%30.04 "Hg10 mi
11:00 PM
Jul 28
75 °FPassing clouds.7 mph89%30.04 "HgN/A
Weather by CustomWeather, © 2014

See weather overviewHow to use our weather pages